Monroe, WI

5:03 AM CST on December 11, 2019 (GMT -0600)
Monroe Municipal

Weather History for KEFT - August, 2019

Change the Weather History Date:

Wednesday, August 28, 2019

  Actual Average Record
Temperature  
Mean Temperature 64 °F -  
Max Temperature 72 °F 84 °F 91 °F (2003)
Min Temperature 56 °F 60 °F 55 °F (2003)
Degree Days  
Heating Degree Days 1    
Growing Degree Days 14 (Base 50)    
Moisture  
Dew Point 50 °F    
Average Humidity 63    
Maximum Humidity 77    
Minimum Humidity 43    
Precipitation  
Precipitation 0.00 in - - ()
Sea Level Pressure  
Sea Level Pressure 29.93 in    
Wind  
Wind Speed 15 mph (West)    
Max Wind Speed 26 mph    
Max Gust Speed 36 mph    
Visibility 10 miles    
Events      
Averages and records for this station are not official NWS values.
T = Trace of Precipitation, MM = Missing Value Source: NWS Daily Summary

Daily Weather History Graph

Daily Weather History Graph

Search for Another Location

Airport or City:

Astronomy

Aug. 28, 2019 Rise Set
Actual Time 6:18 AM CDT 7:39 PM CDT
Civil Twilight 5:49 AM CDT 8:08 PM CDT
Nautical Twilight 5:14 AM CDT 8:44 PM CDT
Astronomical Twilight 4:36 AM CDT 9:21 PM CDT
Moon 3:46 AM CDT (8/28) 6:55 PM CDT (8/28)
Length of Visible Light 14h 19m
Length of Day
13h 20m
Waning Crescent, 4% of the Moon is Illuminated
Aug 28
Waning Crescent
Aug 30
New
Sep 5
First Quarter
Sep 13
Full
Sep 21
Last Quarter

Hourly Weather History & Observations

Time (CDT) Temp. Dew Point Humidity Pressure Visibility Wind Dir Wind Speed Gust Speed Precip Events Conditions
12:15 AM 60.8 °F 48.2 °F 63% 29.88 in 10.0 mi WSW 13.8 mph - N/A   Clear
12:35 AM 60.8 °F 48.2 °F 63% 29.89 in 10.0 mi WSW 15.0 mph - N/A   Clear
12:55 AM 60.3 °F 48.2 °F 64% 29.89 in 10.0 mi WSW 12.7 mph - N/A   Clear
1:15 AM 60.3 °F 48.4 °F 65% 29.89 in 10.0 mi WSW 12.7 mph - N/A   Clear
1:35 AM 59.5 °F 48.6 °F 67% 29.89 in 10.0 mi WSW 12.7 mph - N/A   Clear
1:55 AM 59.0 °F 48.7 °F 69% 29.89 in 10.0 mi WSW 9.2 mph - N/A   Clear
2:15 AM 58.1 °F 49.1 °F 72% 29.89 in 10.0 mi WSW 11.5 mph - N/A   Clear
2:35 AM 58.3 °F 49.1 °F 71% 29.89 in 10.0 mi WSW 13.8 mph - N/A   Clear
2:55 AM 58.3 °F 49.1 °F 71% 29.89 in 10.0 mi WSW 15.0 mph - N/A   Clear
3:15 AM 57.9 °F 49.1 °F 72% 29.89 in 10.0 mi WSW 15.0 mph - N/A   Clear
3:35 AM 57.7 °F 49.1 °F 73% 29.89 in 10.0 mi WSW 15.0 mph - N/A   Clear
3:55 AM 57.6 °F 49.1 °F 73% 29.89 in 10.0 mi WSW 15.0 mph - N/A   Clear
4:15 AM 57.2 °F 48.9 °F 74% 29.89 in 10.0 mi WSW 15.0 mph - N/A   Clear
4:35 AM 57.0 °F 48.9 °F 74% 29.89 in 10.0 mi WSW 13.8 mph - N/A   Clear
4:55 AM 56.8 °F 49.1 °F 75% 29.90 in 10.0 mi WSW 15.0 mph - N/A   Clear
5:15 AM 56.7 °F 49.1 °F 76% 29.90 in 10.0 mi WSW 15.0 mph - N/A   Clear
5:35 AM 56.7 °F 49.1 °F 76% 29.90 in 10.0 mi WSW 16.1 mph - N/A   Clear
5:55 AM 56.3 °F 49.1 °F 77% 29.90 in 10.0 mi WSW 13.8 mph - N/A   Clear
6:15 AM 56.3 °F 49.1 °F 77% 29.91 in 10.0 mi WSW 15.0 mph - N/A   Clear
6:35 AM 56.3 °F 49.1 °F 77% 29.91 in 10.0 mi WSW 17.3 mph - N/A   Clear
6:55 AM 56.5 °F 49.1 °F 76% 29.92 in 10.0 mi WSW 16.1 mph - N/A   Clear
7:15 AM 57.2 °F 49.5 °F 75% 29.93 in 10.0 mi West 13.8 mph - N/A   Clear
7:35 AM 57.6 °F 49.6 °F 75% 29.93 in 10.0 mi WSW 13.8 mph - N/A   Clear
7:55 AM 58.3 °F 50.0 °F 74% 29.93 in 10.0 mi West 16.1 mph - N/A   Clear
8:15 AM 59.2 °F 50.5 °F 73% 29.93 in 10.0 mi West 16.1 mph - N/A   Clear
8:35 AM 60.1 °F 50.9 °F 72% 29.93 in 10.0 mi West 18.4 mph 23.0 mph N/A   Clear
8:55 AM 60.8 °F 51.3 °F 71% 29.93 in 10.0 mi West 17.3 mph 23.0 mph N/A   Clear
9:15 AM 61.7 °F 51.6 °F 69% 29.93 in 10.0 mi West 18.4 mph 21.9 mph N/A   Clear
9:35 AM 62.6 °F 52.2 °F 69% 29.94 in 10.0 mi West 17.3 mph 21.9 mph N/A   Clear
9:55 AM 64.0 °F 53.1 °F 67% 29.94 in 10.0 mi West 16.1 mph 20.7 mph N/A   Clear
10:15 AM 64.6 °F 53.1 °F 66% 29.94 in 10.0 mi West 15.0 mph 24.2 mph N/A   Clear
10:35 AM 64.9 °F 52.7 °F 64% 29.94 in 10.0 mi West 16.1 mph 26.5 mph N/A   Clear
10:55 AM 66.2 °F 53.1 °F 63% 29.94 in 10.0 mi West 18.4 mph 27.6 mph N/A   Mostly Cloudy
11:15 AM 66.9 °F 51.1 °F 57% 29.94 in 10.0 mi West 17.3 mph 28.8 mph N/A   Scattered Clouds
11:35 AM 67.1 °F 49.6 °F 53% 29.94 in 10.0 mi West 21.9 mph 29.9 mph N/A   Scattered Clouds
11:55 AM 67.8 °F 50.9 °F 55% 29.94 in 10.0 mi West 25.3 mph 31.1 mph N/A   Scattered Clouds
12:15 PM 68.0 °F 48.4 °F 49% 29.94 in 10.0 mi West 21.9 mph 34.5 mph N/A   Clear
12:35 PM 68.9 °F 47.5 °F 46% 29.94 in 10.0 mi WNW 21.9 mph 35.7 mph N/A   Clear
12:55 PM 69.4 °F 47.8 °F 46% 29.94 in 10.0 mi West 21.9 mph 29.9 mph N/A   Clear
1:15 PM 69.8 °F 48.6 °F 47% 29.94 in 10.0 mi West 21.9 mph 32.2 mph N/A   Scattered Clouds
1:35 PM 70.7 °F 48.9 °F 46% 29.94 in 10.0 mi West 16.1 mph 33.4 mph N/A   Scattered Clouds
1:55 PM 70.2 °F 47.8 °F 45% 29.94 in 10.0 mi West 25.3 mph 34.5 mph N/A   Scattered Clouds
2:15 PM 71.1 °F 48.7 °F 45% 29.94 in 10.0 mi West 21.9 mph 33.4 mph N/A   Clear
2:35 PM 71.1 °F 47.7 °F 43% 29.94 in 10.0 mi West 19.6 mph 28.8 mph N/A   Clear
2:55 PM 71.1 °F 49.8 °F 47% 29.94 in 10.0 mi West 18.4 mph 31.1 mph N/A   Scattered Clouds
3:15 PM 71.8 °F 49.1 °F 45% 29.94 in 10.0 mi West 26.5 mph 33.4 mph N/A   Clear
3:35 PM 71.6 °F 49.6 °F 46% 29.94 in 10.0 mi WSW 23.0 mph 28.8 mph N/A   Scattered Clouds
3:55 PM 72.1 °F 49.3 °F 44% 29.94 in 10.0 mi West 25.3 mph 29.9 mph N/A   Scattered Clouds
4:15 PM 72.1 °F 50.0 °F 46% 29.94 in 10.0 mi West 13.8 mph 24.2 mph N/A   Scattered Clouds
4:35 PM 72.3 °F 48.9 °F 43% 29.94 in 10.0 mi West 18.4 mph 28.8 mph N/A   Scattered Clouds
4:55 PM 71.8 °F 50.2 °F 46% 29.93 in 10.0 mi West 15.0 mph 31.1 mph N/A   Clear
5:15 PM 72.1 °F 50.0 °F 46% 29.93 in 10.0 mi West 19.6 mph 25.3 mph N/A   Clear
5:35 PM 72.0 °F 49.5 °F 45% 29.93 in 10.0 mi West 18.4 mph 27.6 mph N/A   Clear
5:55 PM 71.6 °F 49.6 °F 46% 29.93 in 10.0 mi West 18.4 mph 25.3 mph N/A   Clear
6:15 PM 71.1 °F 51.1 °F 49% 29.93 in 10.0 mi West 12.7 mph - N/A   Clear
6:35 PM 70.2 °F 51.3 °F 51% 29.93 in 10.0 mi West 12.7 mph - N/A   Clear
6:55 PM 69.1 °F 51.8 °F 54% 29.94 in 10.0 mi West 10.4 mph - N/A   Clear
7:15 PM 67.6 °F 52.2 °F 58% 29.93 in 10.0 mi West 11.5 mph - N/A   Clear
7:35 PM 66.6 °F 52.2 °F 60% 29.94 in 10.0 mi West 8.1 mph - N/A   Clear
7:55 PM 66.0 °F 52.2 °F 61% 29.94 in 10.0 mi West 9.2 mph - N/A   Clear
8:15 PM 64.6 °F 52.7 °F 65% 29.94 in 10.0 mi WSW 10.4 mph - N/A   Clear
8:35 PM 63.7 °F 52.7 °F 67% 29.95 in 10.0 mi WSW 6.9 mph - N/A   Clear
8:55 PM 63.9 °F 52.3 °F 66% 29.96 in 10.0 mi WSW 9.2 mph - N/A   Clear
9:35 PM 62.8 °F 52.7 °F 70% 29.96 in 10.0 mi WSW 9.2 mph - N/A   Clear
9:55 PM 62.8 °F 52.7 °F 70% 29.96 in 10.0 mi WSW 10.4 mph - N/A   Clear
10:15 PM 62.2 °F 52.9 °F 71% 29.97 in 10.0 mi West 10.4 mph - N/A   Clear
10:35 PM 62.1 °F 52.9 °F 72% 29.97 in 10.0 mi West 10.4 mph - N/A   Clear
10:55 PM 61.3 °F 52.9 °F 74% 29.97 in 10.0 mi WSW 10.4 mph - N/A   Clear
11:15 PM 61.0 °F 52.7 °F 74% 29.97 in 10.0 mi WSW 9.2 mph - N/A   Clear
11:35 PM 60.8 °F 52.7 °F 75% 29.97 in 10.0 mi WSW 9.2 mph - N/A   Clear
11:55 PM 60.6 °F 52.5 °F 75% 29.97 in 10.0 mi WSW 9.2 mph - N/A   Clear